Location: Lango�lan
(48.1202°N, 3.2340°W)
Time: 00:46:42
(UTC+00:00)

Cosmos 2360 Rocket - Pass Details

Date: 23 October 2019
Orbit: 832 x 846 km, 71.0° (Epoch: 11 November)

Event Time Altitude Azimuth Distance (km) Brightness Sun altitude
Exits shadow 04:23:07 15° 333° (NNW) 2,111 4.1 -24.0°
Drops below altitude 10° 04:25:46 10° 1° (N) 2,471 4.7 -23.6°
Sets 04:29:19 0° 23° (NNE) 3,412 5.8 -23.0°
